TimeEDT,TemperatureF,Dew PointF,Humidity,Sea Level PressureIn,VisibilityMPH,Wind Direction,Wind SpeedMPH,Gust SpeedMPH,PrecipitationIn,Events,Conditions,WindDirDegrees,DateUTC
12:53 AM,48.9,46.0,90,30.14,10.0,Calm,Calm,-,N/A,,Clear,0,2013-09-09 04:53:00
1:53 AM,48.0,45.0,89,30.15,10.0,Calm,Calm,-,N/A,,Clear,0,2013-09-09 05:53:00
2:53 AM,46.0,43.0,89,30.16,10.0,Calm,Calm,-,N/A,,Clear,0,2013-09-09 06:53:00
3:53 AM,46.0,43.0,89,30.16,10.0,Calm,Calm,-,N/A,,Clear,0,2013-09-09 07:53:00
4:53 AM,43.0,41.0,93,30.19,10.0,Calm,Calm,-,N/A,,Clear,0,2013-09-09 08:53:00
5:53 AM,42.1,39.9,92,30.21,10.0,Calm,Calm,-,N/A,,Clear,0,2013-09-09 09:53:00
6:53 AM,42.1,39.9,92,30.22,10.0,Calm,Calm,-,N/A,,Clear,0,2013-09-09 10:53:00
7:53 AM,46.9,45.0,93,30.23,10.0,Calm,Calm,-,N/A,,Clear,0,2013-09-09 11:53:00
8:53 AM,53.1,46.9,80,30.24,10.0,Calm,Calm,-,N/A,,Scattered Clouds,0,2013-09-09 12:53:00
9:53 AM,55.0,48.9,80,30.25,10.0,Calm,Calm,-,N/A,,Mostly Cloudy,0,2013-09-09 13:53:00
10:53 AM,60.1,48.0,64,30.23,10.0,Calm,Calm,-,N/A,,Partly Cloudy,0,2013-09-09 14:53:00
11:53 AM,64.9,50.0,58,30.22,10.0,Calm,Calm,-,N/A,,Clear,0,2013-09-09 15:53:00
12:53 PM,68.0,52.0,56,30.20,10.0,South,4.6,-,N/A,,Clear,170,2013-09-09 16:53:00
1:53 PM,69.1,52.0,54,30.19,10.0,Calm,Calm,-,N/A,,Overcast,0,2013-09-09 17:53:00
2:53 PM,71.1,54.0,55,30.17,10.0,Variable,3.5,-,N/A,,Overcast,0,2013-09-09 18:53:00
3:53 PM,71.1,55.0,57,30.15,10.0,South,9.2,-,N/A,,Scattered Clouds,180,2013-09-09 19:53:00
4:53 PM,71.1,54.0,55,30.13,10.0,Variable,5.8,-,N/A,,Overcast,0,2013-09-09 20:53:00
5:53 PM,70.0,55.9,61,30.14,10.0,SW,4.6,-,N/A,,Overcast,220,2013-09-09 21:53:00
6:53 PM,69.1,55.9,63,30.13,10.0,Calm,Calm,-,N/A,,Overcast,0,2013-09-09 22:53:00
7:53 PM,66.9,57.0,70,30.14,10.0,Calm,Calm,-,N/A,,Overcast,0,2013-09-09 23:53:00
8:53 PM,64.0,59.0,84,30.15,10.0,Calm,Calm,-,N/A,,Scattered Clouds,0,2013-09-10 00:53:00
9:53 PM,63.0,60.1,90,30.14,10.0,Calm,Calm,-,N/A,,Partly Cloudy,0,2013-09-10 01:53:00
10:53 PM,62.1,60.1,93,30.14,10.0,Calm,Calm,-,N/A,,Scattered Clouds,0,2013-09-10 02:53:00
11:53 PM,62.1,60.1,93,30.12,10.0,Calm,Calm,-,0.00,,Scattered Clouds,0,2013-09-10 03:53:00